Time,TemperatureF,DewpointF,PressureIn,WindDirection,WindDirectionDegrees,WindSpeedMPH,WindSpeedGustMPH,Humidity,HourlyPrecipIn,Conditions,Clouds,dailyrainin,SoftwareType,DateUTC
2013-03-21 00:01:00,51.0,48.0,30.10,South,189,4.0,-999.0,91,-99.99,,,-99.99,,2013-03-21 07:01:00,
2013-03-21 00:12:00,51.0,48.0,30.10,South,189,4.0,-999.0,91,-99.99,,,-99.99,,2013-03-21 07:12:00,
2013-03-21 00:21:00,50.0,47.0,30.10,South,189,4.0,-999.0,91,-99.99,,,-99.99,,2013-03-21 07:21:00,
2013-03-21 00:32:00,50.0,47.0,30.09,SSW,213,3.0,-999.0,91,-99.99,,,-99.99,,2013-03-21 07:32:00,
2013-03-21 00:41:00,50.0,47.0,30.09,SSW,213,3.0,-999.0,91,-99.99,,,-99.99,,2013-03-21 07:41:00,
2013-03-21 00:52:00,51.0,48.0,30.10,SW,222,4.0,-999.0,90,-99.99,,,-99.99,,2013-03-21 07:52:00,
2013-03-21 01:01:00,50.0,47.0,30.10,SW,222,1.0,-999.0,90,-99.99,,,-99.99,,2013-03-21 08:01:00,
2013-03-21 01:12:00,50.0,47.0,30.10,SW,222,2.0,-999.0,91,-99.99,,,-99.99,,2013-03-21 08:12:00,
2013-03-21 01:22:00,50.0,47.0,30.10,SW,222,2.0,-999.0,91,-99.99,,,-99.99,,2013-03-21 08:22:00,
2013-03-21 01:32:00,50.0,47.0,30.09,SW,222,3.0,-999.0,90,-99.99,,,-99.99,,2013-03-21 08:32:00,
2013-03-21 01:42:00,50.0,47.0,30.09,SW,222,3.0,-999.0,90,-99.99,,,-99.99,,2013-03-21 08:42:00,
2013-03-21 01:52:00,49.0,47.0,30.09,SW,222,4.0,-999.0,92,-99.99,,,-99.99,,2013-03-21 08:52:00,
2013-03-21 02:01:00,49.0,47.0,30.09,SW,223,3.0,-999.0,93,-99.99,,,-99.99,,2013-03-21 09:01:00,
2013-03-21 02:11:00,49.0,47.0,30.09,SW,223,3.0,-999.0,93,-99.99,,,-99.99,,2013-03-21 09:11:00,
2013-03-21 02:21:00,48.0,46.0,30.09,SW,223,3.0,-999.0,93,-99.99,,,-99.99,,2013-03-21 09:21:00,
2013-03-21 02:33:00,48.0,46.0,30.09,SW,223,1.0,-999.0,93,-99.99,,,-99.99,,2013-03-21 09:33:00,
2013-03-21 02:43:00,48.0,46.0,30.09,SW,223,1.0,-999.0,93,-99.99,,,-99.99,,2013-03-21 09:43:00,
2013-03-21 02:53:00,48.0,46.0,30.10,SW,223,2.0,-999.0,94,-99.99,,,-99.99,,2013-03-21 09:53:00,
2013-03-21 03:02:00,47.0,45.0,30.10,SW,222,2.0,-999.0,94,-99.99,,,-99.99,,2013-03-21 10:02:00,
2013-03-21 03:12:00,47.0,45.0,30.10,SW,222,2.0,-999.0,94,-99.99,,,-99.99,,2013-03-21 10:12:00,
2013-03-21 03:22:00,47.0,45.0,30.10,SSW,209,3.0,-999.0,94,-99.99,,,-99.99,,2013-03-21 10:22:00,
2013-03-21 03:32:00,46.0,44.0,30.10,SSW,209,2.0,-999.0,94,-99.99,,,-99.99,,2013-03-21 10:32:00,
2013-03-21 03:42:00,46.0,44.0,30.10,SSW,209,2.0,-999.0,94,-99.99,,,-99.99,,2013-03-21 10:42:00,
2013-03-21 03:53:00,46.0,44.0,30.10,SSW,209,2.0,-999.0,94,-99.99,,,-99.99,,2013-03-21 10:53:00,
2013-03-21 04:02:00,45.0,43.0,30.10,SSW,209,0.0,-999.0,94,-99.99,,,-99.99,,2013-03-21 11:02:00,
2013-03-21 04:12:00,45.0,43.0,30.10,SSW,209,0.0,-999.0,94,-99.99,,,-99.99,,2013-03-21 11:12:00,
2013-03-21 04:22:00,45.0,43.0,30.10,SSW,209,0.0,-999.0,94,-99.99,,,-99.99,,2013-03-21 11:22:00,
2013-03-21 04:32:00,44.0,42.0,30.11,SSW,209,0.0,-999.0,94,-99.99,,,-99.99,,2013-03-21 11:32:00,
2013-03-21 04:42:00,44.0,42.0,30.11,SSW,209,0.0,-999.0,94,-99.99,,,-99.99,,2013-03-21 11:42:00,
2013-03-21 04:53:00,44.0,42.0,30.10,SSW,209,0.0,-999.0,94,-99.99,,,-99.99,,2013-03-21 11:53:00,
2013-03-21 05:11:00,43.0,41.0,30.11,SSW,209,1.0,-999.0,94,-99.99,,,-99.99,,2013-03-21 12:11:00,
2013-03-21 05:21:00,43.0,42.0,30.10,SSW,209,2.0,-999.0,95,-99.99,,,-99.99,,2013-03-21 12:21:00,
2013-03-21 05:32:00,43.0,42.0,30.10,SSW,209,2.0,-999.0,95,-99.99,,,-99.99,,2013-03-21 12:32:00,
2013-03-21 05:42:00,43.0,42.0,30.10,SSW,209,2.0,-999.0,95,-99.99,,,-99.99,,2013-03-21 12:42:00,
2013-03-21 05:52:00,43.0,42.0,30.10,SSW,209,0.0,-999.0,95,-99.99,,,-99.99,,2013-03-21 12:52:00,
2013-03-21 06:02:00,43.0,42.0,30.09,SSW,209,0.0,-999.0,95,-99.99,,,-99.99,,2013-03-21 13:02:00,
2013-03-21 06:12:00,43.0,42.0,30.09,SSW,209,0.0,-999.0,95,-99.99,,,-99.99,,2013-03-21 13:12:00,
2013-03-21 06:22:00,43.0,42.0,30.10,SW,227,3.0,-999.0,96,-99.99,,,-99.99,,2013-03-21 13:22:00,
2013-03-21 06:31:00,44.0,43.0,30.11,NW,312,5.0,-999.0,95,-99.99,,,-99.99,,2013-03-21 13:31:00,
2013-03-21 06:42:00,44.0,43.0,30.11,NW,312,5.0,-999.0,95,-99.99,,,-99.99,,2013-03-21 13:42:00,
2013-03-21 06:52:00,44.0,42.0,30.11,NW,320,6.0,-999.0,94,-99.99,,,-99.99,,2013-03-21 13:52:00,
2013-03-21 07:02:00,45.0,43.0,30.11,NW,313,6.0,-999.0,93,-99.99,,,-99.99,,2013-03-21 14:02:00,
2013-03-21 07:11:00,45.0,44.0,30.11,NW,323,5.0,-999.0,95,-99.99,,,-99.99,,2013-03-21 14:11:00,
2013-03-21 07:21:00,45.0,44.0,30.11,NW,323,5.0,-999.0,95,-99.99,,,-99.99,,2013-03-21 14:21:00,
2013-03-21 07:32:00,46.0,45.0,30.11,NW,310,6.0,-999.0,96,-99.99,,,-99.99,,2013-03-21 14:32:00,
2013-03-21 07:42:00,46.0,45.0,30.11,NW,310,6.0,-999.0,96,-99.99,,,-99.99,,2013-03-21 14:42:00,
2013-03-21 07:52:00,46.0,45.0,30.11,NW,304,10.0,-999.0,95,-99.99,,,-99.99,,2013-03-21 14:52:00,
2013-03-21 08:02:00,46.0,45.0,30.12,North,360,7.0,-999.0,96,-99.99,,,-99.99,,2013-03-21 15:02:00,
2013-03-21 08:12:00,46.0,45.0,30.12,North,360,7.0,-999.0,96,-99.99,,,-99.99,,2013-03-21 15:12:00,
2013-03-21 08:22:00,46.0,45.0,30.12,North,360,7.0,-999.0,96,-99.99,,,-99.99,,2013-03-21 15:22:00,
2013-03-21 08:32:00,46.0,45.0,30.13,NW,313,5.0,-999.0,96,-99.99,,,-99.99,,2013-03-21 15:32:00,
2013-03-21 08:42:00,46.0,45.0,30.13,NW,313,5.0,-999.0,96,-99.99,,,-99.99,,2013-03-21 15:42:00,
2013-03-21 08:53:00,46.0,45.0,30.13,NW,313,5.0,-999.0,96,-99.99,,,-99.99,,2013-03-21 15:53:00,
2013-03-21 09:03:00,47.0,41.0,30.13,NW,315,8.0,-999.0,78,-99.99,,,-99.99,,2013-03-21 16:03:00,
2013-03-21 09:12:00,47.0,41.0,30.13,NW,315,8.0,-999.0,78,-99.99,,,-99.99,,2013-03-21 16:12:00,
2013-03-21 09:22:00,48.0,41.0,30.13,NW,310,8.0,-999.0,76,-99.99,,,-99.99,,2013-03-21 16:22:00,
2013-03-21 09:33:00,49.0,41.0,30.13,North,355,8.0,-999.0,73,-99.99,,,-99.99,,2013-03-21 16:33:00,
2013-03-21 09:42:00,49.0,41.0,30.13,North,355,8.0,-999.0,73,-99.99,,,-99.99,,2013-03-21 16:42:00,
2013-03-21 09:53:00,50.0,41.0,30.13,NW,308,9.0,-999.0,71,-99.99,,,-99.99,,2013-03-21 16:53:00,
2013-03-21 10:01:00,51.0,41.0,30.13,NNW,346,9.0,-999.0,68,-99.99,,,-99.99,,2013-03-21 17:01:00,
2013-03-21 10:11:00,51.0,41.0,30.13,NNW,346,9.0,-999.0,68,-99.99,,,-99.99,,2013-03-21 17:11:00,
2013-03-21 10:22:00,52.0,41.0,30.13,WNW,302,7.0,-999.0,67,-99.99,,,-99.99,,2013-03-21 17:22:00,
2013-03-21 10:32:00,52.0,42.0,30.12,NW,313,9.0,-999.0,68,-99.99,,,-99.99,,2013-03-21 17:32:00,
2013-03-21 10:42:00,52.0,42.0,30.12,NW,313,9.0,-999.0,68,-99.99,,,-99.99,,2013-03-21 17:42:00,
2013-03-21 10:53:00,53.0,42.0,30.12,NW,320,8.0,-999.0,66,-99.99,,,-99.99,,2013-03-21 17:53:00,
2013-03-21 11:01:00,54.0,42.0,30.13,NW,326,9.0,-999.0,63,-99.99,,,-99.99,,2013-03-21 18:01:00,
2013-03-21 11:11:00,54.0,42.0,30.13,NW,326,9.0,-999.0,63,-99.99,,,-99.99,,2013-03-21 18:11:00,
2013-03-21 11:22:00,55.0,42.0,30.13,NNW,330,9.0,-999.0,62,-99.99,,,-99.99,,2013-03-21 18:22:00,
2013-03-21 11:32:00,56.0,42.0,30.13,NNW,332,9.0,-999.0,59,-99.99,,,-99.99,,2013-03-21 18:32:00,
2013-03-21 11:42:00,56.0,42.0,30.13,NNW,332,9.0,-999.0,59,-99.99,,,-99.99,,2013-03-21 18:42:00,
2013-03-21 11:52:00,57.0,43.0,30.12,NNW,328,7.0,-999.0,59,-99.99,,,-99.99,,2013-03-21 18:52:00,
2013-03-21 12:01:00,57.0,42.0,30.12,NW,325,9.0,-999.0,57,-99.99,,,-99.99,,2013-03-21 19:01:00,
2013-03-21 12:11:00,57.0,42.0,30.12,NW,325,9.0,-999.0,57,-99.99,,,-99.99,,2013-03-21 19:11:00,
2013-03-21 12:22:00,59.0,42.0,30.12,NNW,329,9.0,-999.0,53,-99.99,,,-99.99,,2013-03-21 19:22:00,
2013-03-21 12:31:00,60.0,41.0,30.11,North,360,8.0,-999.0,50,-99.99,,,-99.99,,2013-03-21 19:31:00,
2013-03-21 12:42:00,60.0,41.0,30.11,North,360,8.0,-999.0,50,-99.99,,,-99.99,,2013-03-21 19:42:00,
2013-03-21 12:52:00,60.0,40.0,30.11,NNW,340,9.0,-999.0,48,-99.99,,,-99.99,,2013-03-21 19:52:00,
2013-03-21 13:02:00,61.0,40.0,30.10,NW,323,8.0,-999.0,45,-99.99,,,-99.99,,2013-03-21 20:02:00,
2013-03-21 13:12:00,61.0,40.0,30.10,NW,323,8.0,-999.0,45,-99.99,,,-99.99,,2013-03-21 20:12:00,
2013-03-21 13:22:00,62.0,39.0,30.10,NW,309,7.0,-999.0,43,-99.99,,,-99.99,,2013-03-21 20:22:00,
2013-03-21 13:32:00,62.0,39.0,30.10,WNW,299,8.0,-999.0,43,-99.99,,,-99.99,,2013-03-21 20:32:00,
2013-03-21 13:42:00,62.0,39.0,30.10,WNW,299,8.0,-999.0,43,-99.99,,,-99.99,,2013-03-21 20:42:00,
2013-03-21 13:53:00,62.0,37.0,30.09,NW,308,8.0,-999.0,40,-99.99,,,-99.99,,2013-03-21 20:53:00,
2013-03-21 14:01:00,63.0,37.0,30.09,NNW,328,7.0,-999.0,38,-99.99,,,-99.99,,2013-03-21 21:01:00,
2013-03-21 14:12:00,63.0,37.0,30.09,NNW,328,7.0,-999.0,38,-99.99,,,-99.99,,2013-03-21 21:12:00,
2013-03-21 14:21:00,63.0,38.0,30.08,NW,322,5.0,-999.0,39,-99.99,,,-99.99,,2013-03-21 21:21:00,
2013-03-21 14:32:00,64.0,38.0,30.07,NNW,336,5.0,-999.0,38,-99.99,,,-99.99,,2013-03-21 21:32:00,
2013-03-21 14:42:00,64.0,38.0,30.07,NNW,336,5.0,-999.0,38,-99.99,,,-99.99,,2013-03-21 21:42:00,
2013-03-21 14:53:00,64.0,37.0,30.06,NW,320,7.0,-999.0,37,-99.99,,,-99.99,,2013-03-21 21:53:00,
2013-03-21 15:02:00,65.0,37.0,30.06,NW,326,9.0,-999.0,36,-99.99,,,-99.99,,2013-03-21 22:02:00,
2013-03-21 15:12:00,65.0,37.0,30.06,NW,326,9.0,-999.0,36,-99.99,,,-99.99,,2013-03-21 22:12:00,
2013-03-21 15:22:00,65.0,37.0,30.05,NW,323,9.0,-999.0,36,-99.99,,,-99.99,,2013-03-21 22:22:00,
2013-03-21 15:33:00,66.0,39.0,30.04,NNW,328,8.0,-999.0,37,-99.99,,,-99.99,,2013-03-21 22:33:00,
2013-03-21 15:42:00,66.0,39.0,30.04,NNW,328,8.0,-999.0,37,-99.99,,,-99.99,,2013-03-21 22:42:00,
2013-03-21 15:52:00,66.0,36.0,30.04,NW,317,9.0,-999.0,33,-99.99,,,-99.99,,2013-03-21 22:52:00,
2013-03-21 16:02:00,66.0,34.0,30.03,NW,321,8.0,-999.0,30,-99.99,,,-99.99,,2013-03-21 23:02:00,
2013-03-21 16:12:00,66.0,34.0,30.03,NW,321,8.0,-999.0,30,-99.99,,,-99.99,,2013-03-21 23:12:00,
2013-03-21 16:21:00,66.0,32.0,30.03,NW,312,8.0,-999.0,28,-99.99,,,-99.99,,2013-03-21 23:21:00,
2013-03-21 16:32:00,67.0,30.0,30.03,NW,304,8.0,-999.0,25,-99.99,,,-99.99,,2013-03-21 23:32:00,
2013-03-21 16:42:00,67.0,30.0,30.03,NW,304,8.0,-999.0,25,-99.99,,,-99.99,,2013-03-21 23:42:00,
2013-03-21 16:53:00,67.0,28.0,30.03,NNW,331,9.0,-999.0,23,-99.99,,,-99.99,,2013-03-21 23:53:00,
2013-03-21 17:01:00,66.0,26.0,30.02,NW,322,10.0,-999.0,22,-99.99,,,-99.99,,2013-03-22 00:01:00,
2013-03-21 17:11:00,66.0,26.0,30.02,NW,322,10.0,-999.0,22,-99.99,,,-99.99,,2013-03-22 00:11:00,
2013-03-21 17:22:00,67.0,27.0,30.02,NW,309,9.0,-999.0,22,-99.99,,,-99.99,,2013-03-22 00:22:00,
2013-03-21 17:31:00,66.0,28.0,30.01,NW,315,8.0,-999.0,24,-99.99,,,-99.99,,2013-03-22 00:31:00,
2013-03-21 17:42:00,66.0,28.0,30.01,NW,315,8.0,-999.0,24,-99.99,,,-99.99,,2013-03-22 00:42:00,
2013-03-21 17:52:00,66.0,23.0,30.02,NW,325,6.0,-999.0,19,-99.99,,,-99.99,,2013-03-22 00:52:00,
2013-03-21 18:01:00,65.0,26.0,30.01,NNW,335,3.0,-999.0,23,-99.99,,,-99.99,,2013-03-22 01:01:00,
2013-03-21 18:11:00,65.0,26.0,30.01,NNW,335,3.0,-999.0,23,-99.99,,,-99.99,,2013-03-22 01:11:00,
2013-03-21 18:21:00,65.0,27.0,30.01,NW,308,4.0,-999.0,24,-99.99,,,-99.99,,2013-03-22 01:21:00,
2013-03-21 18:31:00,65.0,25.0,30.01,NW,326,4.0,-999.0,22,-99.99,,,-99.99,,2013-03-22 01:31:00,
2013-03-21 18:42:00,65.0,25.0,30.01,NW,326,4.0,-999.0,22,-99.99,,,-99.99,,2013-03-22 01:42:00,
2013-03-21 18:53:00,64.0,27.0,30.01,NW,317,3.0,-999.0,25,-99.99,,,-99.99,,2013-03-22 01:53:00,
2013-03-21 19:02:00,63.0,29.0,30.01,NW,318,2.0,-999.0,28,-99.99,,,-99.99,,2013-03-22 02:02:00,
2013-03-21 19:12:00,63.0,29.0,30.01,NW,318,2.0,-999.0,28,-99.99,,,-99.99,,2013-03-22 02:12:00,
2013-03-21 19:22:00,62.0,29.0,30.01,NW,315,1.0,-999.0,29,-99.99,,,-99.99,,2013-03-22 02:22:00,
2013-03-21 19:31:00,61.0,32.0,30.01,NW,315,1.0,-999.0,33,-99.99,,,-99.99,,2013-03-22 02:31:00,
2013-03-21 19:42:00,61.0,32.0,30.01,NW,315,1.0,-999.0,33,-99.99,,,-99.99,,2013-03-22 02:42:00,
2013-03-21 19:52:00,60.0,32.0,30.01,NW,315,0.0,-999.0,34,-99.99,,,-99.99,,2013-03-22 02:52:00,
2013-03-21 20:01:00,59.0,31.0,30.01,NW,315,0.0,-999.0,35,-99.99,,,-99.99,,2013-03-22 03:01:00,
2013-03-21 20:12:00,59.0,31.0,30.01,NW,315,0.0,-999.0,35,-99.99,,,-99.99,,2013-03-22 03:12:00,
2013-03-21 20:21:00,58.0,31.0,30.02,NW,320,2.0,-999.0,36,-99.99,,,-99.99,,2013-03-22 03:21:00,
2013-03-21 20:32:00,58.0,28.0,30.02,NNW,342,2.0,-999.0,32,-99.99,,,-99.99,,2013-03-22 03:32:00,
2013-03-21 20:42:00,58.0,28.0,30.02,NNW,342,2.0,-999.0,32,-99.99,,,-99.99,,2013-03-22 03:42:00,
2013-03-21 20:53:00,58.0,28.0,30.02,NW,315,2.0,-999.0,31,-99.99,,,-99.99,,2013-03-22 03:53:00,
2013-03-21 21:03:00,58.0,28.0,30.03,NW,311,3.0,-999.0,31,-99.99,,,-99.99,,2013-03-22 04:03:00,
2013-03-21 21:12:00,58.0,28.0,30.03,NW,311,3.0,-999.0,31,-99.99,,,-99.99,,2013-03-22 04:12:00,
2013-03-21 21:22:00,57.0,28.0,30.03,NW,312,2.0,-999.0,33,-99.99,,,-99.99,,2013-03-22 04:22:00,
2013-03-21 21:32:00,57.0,29.0,30.03,NW,319,3.0,-999.0,34,-99.99,,,-99.99,,2013-03-22 04:32:00,
2013-03-21 21:42:00,57.0,29.0,30.03,NW,319,3.0,-999.0,34,-99.99,,,-99.99,,2013-03-22 04:42:00,
2013-03-21 21:52:00,57.0,29.0,30.03,NW,309,3.0,-999.0,34,-99.99,,,-99.99,,2013-03-22 04:52:00,
2013-03-21 22:02:00,57.0,29.0,30.03,NW,316,3.0,-999.0,34,-99.99,,,-99.99,,2013-03-22 05:02:00,
2013-03-21 22:12:00,57.0,29.0,30.03,NW,316,3.0,-999.0,34,-99.99,,,-99.99,,2013-03-22 05:12:00,
2013-03-21 22:22:00,57.0,29.0,30.03,NW,315,2.0,-999.0,34,-99.99,,,-99.99,,2013-03-22 05:22:00,
2013-03-21 22:32:00,57.0,29.0,30.03,NW,320,2.0,-999.0,34,-99.99,,,-99.99,,2013-03-22 05:32:00,
2013-03-21 22:42:00,57.0,29.0,30.03,NW,320,2.0,-999.0,34,-99.99,,,-99.99,,2013-03-22 05:42:00,
2013-03-21 22:52:00,55.0,29.0,30.03,NW,313,2.0,-999.0,37,-99.99,,,-99.99,,2013-03-22 05:52:00,
2013-03-21 23:02:00,55.0,30.0,30.04,NW,319,3.0,-999.0,38,-99.99,,,-99.99,,2013-03-22 06:02:00,
2013-03-21 23:12:00,55.0,30.0,30.04,NW,319,3.0,-999.0,38,-99.99,,,-99.99,,2013-03-22 06:12:00,
2013-03-21 23:22:00,56.0,29.0,30.04,NW,317,3.0,-999.0,36,-99.99,,,-99.99,,2013-03-22 06:22:00,
2013-03-21 23:32:00,55.0,29.0,30.03,NW,320,3.0,-999.0,36,-99.99,,,-99.99,,2013-03-22 06:32:00,
2013-03-21 23:42:00,55.0,29.0,30.03,NW,320,3.0,-999.0,36,-99.99,,,-99.99,,2013-03-22 06:42:00,
2013-03-21 23:52:00,55.0,29.0,30.03,NW,316,3.0,-999.0,36,-99.99,,,-99.99,,2013-03-22 06:52:00,